Weather History for Boonville, MO

Change the Weather History Date:

Saturday, March 9, 2013

  Actual Average Record
Temperature  
Mean Temperature 52 °F -  
Max Temperature 65 °F 52 °F 78 °F (1974)
Min Temperature 38 °F 28 °F 10 °F (1951)
Degree Days  
Heating Degree Days 14    
Growing Degree Days 2 (Base 50)    
Moisture  
Dew Point 41 °F    
Average Humidity 70    
Maximum Humidity 97    
Minimum Humidity 40    
Precipitation  
Precipitation 0.45 in - - ()
Sea Level Pressure  
Sea Level Pressure 29.85 in    
Wind  
Wind Speed 11 mph (SSE)    
Max Wind Speed 21 mph    
Max Gust Speed 26 mph    
Visibility 9 miles    
Events Rain , Thunderstorm    
Averages and records for this station are not official NWS values.
T = Trace of Precipitation, MM = Missing Value Source: NWS Daily Summary

Daily Weather History Graph

Daily Weather History Graph

Search for Another Location

Airport:

Trip Planner

Search our weather history database for the weather conditions in past years. The results will help you decide how hot, cold, wet, or windy it might be!

Date:

Astronomy

Mar. 09, 2013 Rise Set
Actual Time 6:30 AM CST 6:12 PM CST
Civil Twilight 6:04 AM CST 6:38 PM CST
Nautical Twilight 5:33 AM CST 7:09 PM CST
Astronomical Twilight 5:02 AM CST 7:40 PM CST
Moon 4:54 AM CST (3/9) 4:15 PM CST (3/9)
Length of Visible Light 12h 34m
Length of Day
11h 41m
Waning Crescent, 5% of the Moon is Illuminated
Mar 9
Waning Crescent
Mar 11
New
Mar 19
First Quarter
Mar 27
Full
Apr 2
Last Quarter

Hourly Weather History & Observations

Time (CST) Temp. Windchill Dew Point Humidity Pressure Visibility Wind Dir Wind Speed Gust Speed Precip Events Conditions
12:15 AM 43.0 °F 36.8 °F 31.6 °F 64% 30.07 in 10.0 mi ESE 11.5 mph - N/A   Overcast
12:35 AM 42.6 °F 37.8 °F 31.8 °F 66% 30.08 in 10.0 mi SSE 8.1 mph - N/A Rain Light Rain
12:55 AM 41.4 °F 36.2 °F 32.9 °F 72% 30.08 in 7.0 mi SE 8.1 mph - 0.04 in Rain Rain
1:15 AM 40.6 °F 33.8 °F 33.3 °F 75% 30.06 in 10.0 mi ESE 11.5 mph - 0.01 in Rain Light Rain
1:35 AM 41.4 °F 35.7 °F 32.9 °F 72% 30.06 in 10.0 mi SE 9.2 mph - 0.01 in   Overcast
1:55 AM 41.2 °F 38.2 °F 33.1 °F 73% 30.08 in 7.0 mi South 4.6 mph - 0.03 in Rain Rain
2:15 AM 40.3 °F 38.2 °F 34.3 °F 79% 30.08 in 5.0 mi SSE 3.5 mph - 0.02 in Rain Heavy Rain
2:35 AM 39.4 °F 36.1 °F 34.9 °F 84% 30.07 in 7.0 mi ESE 4.6 mph - 0.04 in Rain Rain
2:55 AM 39.4 °F 37.2 °F 35.2 °F 85% 30.05 in 4.0 mi ESE 3.5 mph - 0.10 in Rain Rain
3:15 AM 39.2 °F 34.2 °F 36.7 °F 91% 30.04 in 5.0 mi ESE 6.9 mph - 0.02 in Rain Light Rain
3:35 AM 39.0 °F 33.4 °F 37.0 °F 93% 30.04 in 3.0 mi SE 8.1 mph - 0.05 in Rain Rain
3:55 AM 38.8 °F 31.6 °F 37.6 °F 95% 30.03 in 1.8 mi ESE 11.5 mph - 0.20 in Rain Heavy Rain
4:15 AM 39.2 °F 30.5 °F 38.3 °F 97% 30.01 in 5.0 mi SE 16.1 mph - 0.01 in Rain Light Rain
4:35 AM 39.7 °F 31.2 °F 39.0 °F 97% 30.00 in 7.0 mi SE 16.1 mph 23.0 mph 0.01 in Thunderstorm Overcast
4:55 AM 40.1 °F 31.6 °F 39.2 °F 97% 29.99 in 10.0 mi SE 16.1 mph - 0.01 in   Overcast
5:15 AM 40.5 °F 32.1 °F 39.2 °F 95% 29.99 in 10.0 mi SE 16.1 mph 21.9 mph N/A   Overcast
5:35 AM 40.5 °F 32.8 °F 39.2 °F 95% 29.99 in 10.0 mi SE 13.8 mph 21.9 mph N/A   Overcast
5:55 AM 40.5 °F 32.8 °F 39.0 °F 95% 29.98 in 7.0 mi SE 13.8 mph - N/A Rain Rain
6:15 AM 40.3 °F 32.2 °F 39.2 °F 96% 29.98 in 10.0 mi SE 15.0 mph 20.7 mph N/A   Overcast
6:35 AM 40.6 °F 33.0 °F 39.2 °F 95% 29.98 in 10.0 mi SE 13.8 mph - N/A   Overcast
6:55 AM 41.0 °F 33.1 °F 39.2 °F 93% 29.97 in 10.0 mi SE 15.0 mph - N/A   Overcast
7:15 AM 41.2 °F 33.7 °F 39.2 °F 93% 29.97 in 10.0 mi SE 13.8 mph 17.3 mph N/A   Overcast
7:35 AM 41.5 °F 33.8 °F 38.7 °F 89% 29.96 in 10.0 mi SE 15.0 mph - N/A   Overcast
7:55 AM 41.9 °F 34.6 °F 38.5 °F 88% 29.96 in 10.0 mi SE 13.8 mph - N/A   Overcast
8:15 AM 42.1 °F 35.7 °F 38.3 °F 86% 29.96 in 10.0 mi SSE 11.5 mph - N/A   Overcast
8:35 AM 42.6 °F 35.2 °F 38.3 °F 85% 29.95 in 10.0 mi SSE 15.0 mph 19.6 mph N/A   Overcast
8:55 AM 42.6 °F 35.2 °F 38.5 °F 85% 29.94 in 10.0 mi SE 15.0 mph - N/A   Overcast
9:15 AM 43.2 °F 36.2 °F 38.5 °F 84% 29.93 in 10.0 mi SE 13.8 mph 18.4 mph N/A   Overcast
9:35 AM 43.5 °F 36.7 °F 37.4 °F 79% 29.92 in 10.0 mi SSE 13.8 mph 23.0 mph N/A   Overcast
9:55 AM 43.9 °F 37.5 °F 37.4 °F 78% 29.91 in 10.0 mi SE 12.7 mph - N/A   Overcast
10:15 AM 44.4 °F 37.9 °F 37.0 °F 75% 29.91 in 10.0 mi SE 13.8 mph - N/A   Overcast
10:35 AM 45.1 °F 39.1 °F 37.2 °F 74% 29.90 in 10.0 mi SSE 12.7 mph - N/A   Overcast
10:55 AM 46.4 °F 40.4 °F 37.2 °F 70% 29.89 in 10.0 mi SE 13.8 mph 19.6 mph N/A   Overcast
11:15 AM 48.0 °F - 37.4 °F 67% 29.89 in 10.0 mi SSE 11.5 mph - N/A   Mostly Cloudy
11:35 AM 49.6 °F - 38.1 °F 65% 29.86 in 10.0 mi SE 12.7 mph - N/A   Scattered Clouds
11:55 AM 51.8 °F - 39.6 °F 63% 29.85 in 10.0 mi SE 10.4 mph - N/A   Clear
12:15 PM 53.4 °F - 40.5 °F 61% 29.83 in 10.0 mi SE 15.0 mph - N/A   Mostly Cloudy
12:35 PM 54.5 °F - 40.5 °F 59% 29.81 in 10.0 mi SE 12.7 mph - N/A   Overcast
12:55 PM 57.0 °F - 41.5 °F 56% 29.80 in 10.0 mi SE 12.7 mph - N/A   Overcast
1:15 PM 59.4 °F - 41.7 °F 52% 29.78 in 10.0 mi SSE 9.2 mph - N/A   Overcast
1:35 PM 60.4 °F - 40.8 °F 48% 29.77 in 10.0 mi SSE 11.5 mph - N/A   Overcast
1:55 PM 61.3 °F - 40.6 °F 47% 29.75 in 10.0 mi SE 10.4 mph - N/A   Overcast
2:15 PM 61.5 °F - 40.1 °F 45% 29.74 in 10.0 mi SSE 8.1 mph - N/A   Overcast
2:35 PM 61.9 °F - 41.0 °F 46% 29.74 in 10.0 mi SSE 6.9 mph - N/A   Overcast
2:55 PM 63.3 °F - 41.0 °F 44% 29.73 in 10.0 mi SSE 5.8 mph - N/A   Overcast
3:15 PM 65.8 °F - 40.6 °F 40% 29.72 in 10.0 mi SSE 10.4 mph - N/A   Mostly Cloudy
3:35 PM 64.9 °F - 40.1 °F 40% 29.72 in 10.0 mi SSE 15.0 mph - N/A   Overcast
3:55 PM 64.0 °F - 40.3 °F 42% 29.73 in 10.0 mi South 13.8 mph - N/A   Overcast
4:15 PM 63.0 °F - 41.4 °F 45% 29.73 in 10.0 mi SSE 10.4 mph - N/A   Overcast
4:35 PM 62.4 °F - 41.7 °F 47% 29.72 in 10.0 mi SSE 11.5 mph - N/A   Overcast
4:55 PM 62.6 °F - 41.4 °F 46% 29.71 in 10.0 mi SE 9.2 mph - N/A   Overcast
5:15 PM 62.1 °F - 42.1 °F 48% 29.70 in 10.0 mi SSE 9.2 mph - N/A Thunderstorm Overcast
5:35 PM 61.5 °F - 41.7 °F 48% 29.69 in 10.0 mi SSE 9.2 mph - N/A   Overcast
5:55 PM 61.0 °F - 41.2 °F 48% 29.69 in 10.0 mi SSE 9.2 mph - N/A   Overcast
6:15 PM 61.0 °F - 40.5 °F 47% 29.69 in 10.0 mi SSE 10.4 mph - N/A   Overcast
6:35 PM 61.2 °F - 41.9 °F 49% 29.69 in 10.0 mi South 9.2 mph - N/A Thunderstorm Overcast
6:55 PM 61.0 °F - 43.7 °F 53% 29.69 in 10.0 mi SSE 8.1 mph - N/A   Overcast
7:15 PM 61.3 °F - 44.2 °F 53% 29.69 in 10.0 mi SSE 10.4 mph - N/A   Overcast
7:35 PM 61.5 °F - 45.1 °F 55% 29.69 in 10.0 mi SSE 6.9 mph - N/A   Overcast
7:55 PM 61.7 °F - 46.2 °F 57% 29.69 in 10.0 mi South 12.7 mph - N/A   Overcast
8:15 PM 61.9 °F - 47.5 °F 59% 29.70 in 10.0 mi South 11.5 mph - N/A Thunderstorm Overcast
8:35 PM 61.0 °F - 48.0 °F 62% 29.69 in 10.0 mi SSE 13.8 mph - N/A   Overcast
8:55 PM 61.5 °F - 48.6 °F 62% 29.69 in 10.0 mi SSE 13.8 mph - N/A   Overcast
9:15 PM 60.6 °F - 49.5 °F 67% 29.70 in 7.0 mi South 20.7 mph 26.5 mph 0.01 in Rain Light Rain
9:35 PM 59.9 °F - 49.6 °F 69% 29.72 in 7.0 mi South 17.3 mph 25.3 mph 0.02 in Rain Light Rain
9:55 PM 57.6 °F - 50.5 °F 77% 29.71 in 7.0 mi South 15.0 mph 21.9 mph 0.05 in Rain Light Rain
10:15 PM 55.9 °F - 50.2 °F 81% 29.71 in 10.0 mi SSE 16.1 mph - N/A   Light Drizzle
10:35 PM 55.6 °F - 49.8 °F 81% 29.70 in 10.0 mi SSE 16.1 mph 20.7 mph N/A   Overcast
10:55 PM 54.9 °F - 50.0 °F 84% 29.70 in 10.0 mi SSE 13.8 mph 19.6 mph 0.01 in Rain Light Rain
11:15 PM 54.0 °F - 51.1 °F 90% 29.69 in 10.0 mi SSE 10.4 mph 16.1 mph N/A Rain Light Rain
11:35 PM 53.8 °F - 50.5 °F 89% 29.69 in 10.0 mi SSE 12.7 mph 16.1 mph N/A Rain Rain
11:55 PM 53.8 °F - 49.1 °F 84% 29.69 in 10.0 mi SSE 11.5 mph 17.3 mph 0.01 in Rain Rain